| time (UTC) | temp F | wind direction | speed MPH | gust MPH | rain 1hr in | rain 24hr in | rain mn in | humidity % | barometer mb |
| 20260507193055 | 58 | 0 | 1.0 | 4.0 | 0.00 | 0.00 | 0.00 | 70 | 1019.7 |
| 20260507191553 | 58 | 0 | 1.0 | 5.0 | 0.00 | 0.00 | 0.00 | 74 | 1019.7 |
| 20260507190052 | 57 | 19 | 1.0 | 8.0 | 0.00 | 0.00 | 0.00 | 73 | 1020.0 |
| 20260507184554 | 56 | 0 | 1.0 | 8.0 | 0.00 | 0.00 | 0.00 | 72 | 1020.0 |
| 20260507183057 | 56 | 0 | 2.0 | 6.0 | 0.00 | 0.00 | 0.00 | 73 | 1020.1 |
| 20260507181552 | 56 | 352 | 0.0 | 4.0 | 0.00 | 0.00 | 0.00 | 74 | 1020.4 |
| 20260507180101 | 55 | 0 | 1.0 | 3.0 | 0.00 | 0.00 | 0.00 | 74 | 1020.4 |
| 20260507174608 | 55 | 324 | 0.0 | 3.0 | 0.00 | 0.00 | 0.00 | 78 | 1020.6 |
| 20260507173056 | 54 | 0 | 0.0 | 4.0 | 0.00 | 0.00 | 0.00 | 80 | 1020.7 |
| 20260507171610 | 53 | 0 | 1.0 | 5.0 | 0.00 | 0.00 | 0.00 | 79 | 1020.7 |
| 20260507170054 | 53 | 272 | 1.0 | 4.0 | 0.00 | 0.00 | 0.00 | 82 | 1020.6 |
| 20260507164556 | 52 | 0 | 1.0 | 3.0 | 0.00 | 0.00 | 0.00 | 81 | 1020.6 |
| 20260507163054 | 51 | 0 | 0.0 | 2.0 | 0.00 | 0.00 | 0.00 | 82 | 1020.5 |
| 20260507161601 | 51 | 315 | 0.0 | 3.0 | 0.00 | 0.00 | 0.00 | 85 | 1020.4 |
| 20260507160058 | 50 | 0 | 0.0 | 1.0 | 0.00 | 0.00 | 0.00 | 85 | 1020.5 |
| 20260507154601 | 50 | 0 | 0.0 | 1.0 | 0.00 | 0.00 | 0.00 | 86 | 1020.5 |
| 20260507153103 | 50 | 0 | 0.0 | 2.0 | 0.00 | 0.00 | 0.00 | 84 | 1020.6 |
| 20260507151554 | 49 | 0 | 0.0 | 2.0 | 0.00 | 0.00 | 0.00 | 85 | 1020.6 |
| 20260507150057 | 49 | 0 | 0.0 | 4.0 | 0.00 | 0.00 | 0.00 | 85 | 1020.6 |
| 20260507144555 | 48 | 0 | 0.0 | 2.0 | 0.00 | 0.00 | 0.00 | 85 | 1020.6 |
| 20260507143057 | 48 | 0 | 0.0 | 2.0 | 0.00 | 0.00 | 0.00 | 86 | 1020.5 |
| 20260507141556 | 48 | 0 | 0.0 | 1.0 | 0.00 | 0.00 | 0.00 | 87 | 1020.6 |
| 20260507140106 | 48 | 0 | 0.0 | 3.0 | 0.00 | 0.00 | 0.00 | 87 | 1020.4 |
| 20260507134552 | 47 | 0 | 0.0 | 4.0 | 0.00 | 0.00 | 0.00 | 87 | 1020.4 |
| 20260507133055 | 47 | 0 | 0.0 | 2.0 | 0.00 | 0.00 | 0.00 | 87 | 1020.4 |
| 20260507131550 | 48 | 0 | 0.0 | 4.0 | 0.00 | 0.00 | 0.00 | 88 | 1020.4 |
| 20260507130106 | 48 | 0 | 0.0 | 1.0 | 0.00 | 0.00 | 0.00 | 88 | 1020.4 |
| 20260507124620 | 48 | 0 | 0.0 | 3.0 | 0.00 | 0.00 | 0.00 | 88 | 1020.4 |
| 20260507123050 | 48 | 0 | 0.0 | 1.0 | 0.00 | 0.00 | 0.00 | 88 | 1020.4 |
| 20260507121552 | 48 | 275 | 3.0 | 7.0 | 0.00 | 0.00 | 0.00 | 87 | 1020.5 |
| 20260507120053 | 49 | 0 | 0.0 | 1.0 | 0.00 | 0.00 | 0.00 | 89 | 1020.5 |
| 20260507114609 | 49 | 278 | 0.0 | 4.0 | 0.00 | 0.00 | 0.00 | 88 | 1020.6 |
| 20260507113055 | 49 | 246 | 0.0 | 4.0 | 0.00 | 0.00 | 0.00 | 89 | 1020.5 |
| 20260507111552 | 49 | 0 | 0.0 | 1.0 | 0.00 | 0.00 | 0.00 | 89 | 1020.6 |
| 20260507110057 | 50 | 270 | 0.0 | 3.0 | 0.00 | 0.00 | 0.00 | 89 | 1020.6 |
| 20260507104555 | 50 | 261 | 0.0 | 8.0 | 0.00 | 0.00 | 0.00 | 89 | 1020.8 |
| 20260507103054 | 50 | 0 | 0.0 | 3.0 | 0.00 | 0.00 | 0.00 | 88 | 1020.9 |
| 20260507101552 | 50 | 0 | 0.0 | 4.0 | 0.00 | 0.00 | 0.00 | 88 | 1020.9 |
| 20260507100054 | 50 | 0 | 0.0 | 2.0 | 0.00 | 0.00 | 0.00 | 88 | 1021.2 |
| 20260507094555 | 50 | 0 | 0.0 | 2.0 | 0.00 | 0.00 | 0.00 | 88 | 1021.2 |
| 20260507093056 | 50 | 288 | 0.0 | 1.0 | 0.00 | 0.00 | 0.00 | 88 | 1021.3 |
| 20260507091552 | 50 | 0 | 0.0 | 2.0 | 0.00 | 0.00 | 0.00 | 88 | 1021.3 |
| 20260507090051 | 50 | 0 | 0.0 | 2.0 | 0.00 | 0.00 | 0.00 | 88 | 1021.5 |
| 20260507084553 | 51 | 0 | 0.0 | 3.0 | 0.00 | 0.00 | 0.00 | 88 | 1021.5 |
| 20260507083051 | 51 | 0 | 0.0 | 3.0 | 0.00 | 0.00 | 0.00 | 87 | 1021.5 |
| 20260507081553 | 51 | 203 | 0.0 | 3.0 | 0.00 | 0.00 | 0.00 | 87 | 1021.5 |
| 20260507080100 | 51 | 0 | 0.0 | 1.0 | 0.00 | 0.00 | 0.00 | 87 | 1021.5 |
| 20260507074606 | 51 | 0 | 0.0 | 1.0 | 0.00 | 0.00 | 0.00 | 88 | 1021.5 |
| 20260507073052 | 51 | 0 | 0.0 | 3.0 | 0.00 | 0.00 | 0.00 | 86 | 1021.3 |
| 20260507071554 | 52 | 0 | 0.0 | 3.0 | 0.00 | 0.00 | 0.00 | 87 | 1021.4 |
| 20260507070107 | 52 | 263 | 1.0 | 6.0 | 0.00 | 0.00 | 0.00 | 86 | 1021.4 |
| 20260507064604 | 52 | 0 | 0.0 | 7.0 | 0.00 | 0.00 | 0.00 | 86 | 1021.3 |
| 20260507063102 | 52 | 267 | 1.0 | 5.0 | 0.00 | 0.00 | 0.00 | 86 | 1021.5 |
| 20260507061552 | 53 | 258 | 1.0 | 6.0 | 0.00 | 0.00 | 0.00 | 87 | 1021.3 |
| 20260507060054 | 53 | 0 | 0.0 | 1.0 | 0.00 | 0.00 | 0.00 | 86 | 1021.2 |
| 20260507054557 | 53 | 0 | 0.0 | 1.0 | 0.00 | 0.00 | 0.00 | 87 | 1021.1 |
| 20260507053051 | 53 | 0 | 0.0 | 1.0 | 0.00 | 0.00 | 0.00 | 87 | 1021.1 |
| 20260507051555 | 53 | 179 | 0.0 | 5.0 | 0.00 | 0.00 | 0.00 | 86 | 1021.3 |
| 20260507050053 | 54 | 0 | 0.0 | 6.0 | 0.00 | 0.00 | 0.00 | 85 | 1021.1 |
| 20260507044553 | 54 | 0 | 0.0 | 6.0 | 0.00 | 0.00 | 0.00 | 85 | 1021.1 |
| 20260507043057 | 55 | 257 | 0.0 | 5.0 | 0.00 | 0.00 | 0.00 | 85 | 1021.0 |
| 20260507041555 | 55 | 0 | 0.0 | 6.0 | 0.00 | 0.00 | 0.00 | 85 | 1021.1 |
| 20260507040058 | 56 | 0 | 0.0 | 3.0 | 0.00 | 0.00 | 0.00 | 86 | 1020.7 |
| 20260507034550 | 56 | 0 | 0.0 | 2.0 | 0.00 | 0.00 | 0.00 | 87 | 1020.6 |
| 20260507033051 | 56 | 0 | 0.0 | 2.0 | 0.00 | 0.00 | 0.00 | 86 | 1020.5 |
| 20260507031548 | 57 | 0 | 0.0 | 2.0 | 0.00 | 0.00 | 0.00 | 85 | 1020.3 |
| 20260507030054 | 58 | 272 | 0.0 | 2.0 | 0.00 | 0.00 | 0.00 | 83 | 1020.1 |
| 20260507024548 | 59 | 0 | 0.0 | 3.0 | 0.00 | 0.00 | 0.00 | 82 | 1020.0 |
| 20260507023051 | 60 | 0 | 0.0 | 2.0 | 0.00 | 0.00 | 0.00 | 81 | 1020.0 |
| 20260507021552 | 61 | 0 | 1.0 | 6.0 | 0.00 | 0.00 | 0.00 | 80 | 1020.0 |
| 20260507020053 | 61 | 242 | 0.0 | 7.0 | 0.00 | 0.00 | 0.00 | 81 | 1020.1 |
| 20260507014557 | 61 | 0 | 0.0 | 3.0 | 0.00 | 0.00 | 0.00 | 81 | 1020.2 |
| 20260507013108 | 62 | 0 | 0.0 | 1.0 | 0.00 | 0.00 | 0.00 | 81 | 1020.2 |
| 20260507011550 | 62 | 0 | 0.0 | 3.0 | 0.00 | 0.00 | 0.00 | 80 | 1020.3 |
| 20260507004555 | 62 | 320 | 0.0 | 3.0 | 0.00 | 0.00 | 0.00 | 79 | 1020.3 |
| 20260507003053 | 62 | 0 | 0.0 | 4.0 | 0.00 | 0.00 | 0.00 | 77 | 1020.3 |
| 20260507001555 | 62 | 0 | 0.0 | 4.0 | 0.00 | 0.00 | 0.00 | 77 | 1020.4 |
| 20260507000054 | 63 | 348 | 0.0 | 4.0 | 0.00 | 0.00 | 0.00 | 76 | 1020.3 |
| 20260506234555 | 64 | 5 | 0.0 | 5.0 | 0.00 | 0.00 | 0.00 | 74 | 1020.2 |
| 20260506233106 | 63 | 286 | 0.0 | 3.0 | 0.00 | 0.00 | 0.00 | 76 | 1020.4 |
| 20260506231605 | 63 | 0 | 1.0 | 6.0 | 0.00 | 0.00 | 0.00 | 74 | 1020.4 |
| 20260506230103 | 62 | 0 | 0.0 | 6.0 | 0.00 | 0.00 | 0.00 | 79 | 1020.4 |
| 20260506224556 | 62 | 0 | 0.0 | 3.0 | 0.00 | 0.00 | 0.00 | 79 | 1020.6 |
| 20260506223055 | 62 | 345 | 1.0 | 4.0 | 0.00 | 0.00 | 0.00 | 77 | 1020.7 |
| 20260506221559 | 62 | 0 | 1.0 | 6.0 | 0.00 | 0.00 | 0.00 | 77 | 1020.8 |
| 20260506220059 | 63 | 273 | 0.0 | 4.0 | 0.00 | 0.00 | 0.00 | 78 | 1020.8 |
| 20260506214600 | 63 | 0 | 0.0 | 4.0 | 0.00 | 0.00 | 0.00 | 79 | 1020.7 |
| 20260506213056 | 61 | 0 | 0.0 | 3.0 | 0.00 | 0.00 | 0.00 | 83 | 1021.0 |
| 20260506211607 | 61 | 344 | 0.0 | 5.0 | 0.00 | 0.00 | 0.00 | 81 | 1021.3 |
| 20260506210055 | 63 | 0 | 0.0 | 6.0 | 0.00 | 0.00 | 0.00 | 81 | 1021.2 |
| 20260506204556 | 63 | 259 | 0.0 | 7.0 | 0.00 | 0.00 | 0.00 | 78 | 1021.0 |
| 20260506203055 | 63 | 0 | 1.0 | 5.0 | 0.00 | 0.00 | 0.00 | 80 | 1021.0 |
| 20260506201554 | 61 | 0 | 1.0 | 4.0 | 0.00 | 0.00 | 0.00 | 84 | 1021.1 |
| 20260506200051 | 60 | 317 | 1.0 | 4.0 | 0.00 | 0.00 | 0.00 | 83 | 1021.4 |
| 20260506194554 | 60 | 313 | 1.0 | 4.0 | 0.00 | 0.00 | 0.00 | 84 | 1021.4 |